When you browse on this site, cookies collect data to enhance your experience and personalize the content and advertising you see.
Visit our Privacy Policy to learn more. By continuing to use the site, you agree to this use of cookies and data.
  • In Hungary
  • List of Countries
  • For 7 days
  • Water Temperature
  • Satellite Maps
  • Weather Map
  • News
  • Weather Widgets
  • user-avatar
    Login

    Hourly Weather Cieza

    Today, 14 December, Friday

    Time Temperature Precipitation Wind Pressure Humidity
    00:00 +8°C° 0 mm 12 mps 744 mmHg 58%
    01:00 +8°C° 0 mm 12 mps 744 mmHg 59%
    02:00 +8°C° 0 mm 11 mps 745 mmHg 59%
    03:00 +7°C° 0 mm 11 mps 745 mmHg 60%
    04:00 +7°C° 0 mm 11 mps 746 mmHg 61%
    05:00 +7°C° 0 mm 10 mps 747 mmHg 62%
    06:00 +7°C° 0 mm 6 mps 747 mmHg 65%
    07:00 +8°C° 0 mm 7 mps 748 mmHg 62%
    08:00 +8°C° 0 mm 9 mps 748 mmHg 59%
    09:00 +8°C° 0 mm 10 mps 749 mmHg 57%
    10:00 +9°C° 0 mm 10 mps 749 mmHg 53%
    11:00 +12°C° 0 mm 11 mps 749 mmHg 49%
    12:00 +13°C° 0 mm 11 mps 750 mmHg 45%
    13:00 +13°C° 0 mm 11 mps 750 mmHg 45%
    14:00 +13°C° 0 mm 10 mps 750 mmHg 44%
    15:00 +13°C° 0 mm 10 mps 750 mmHg 44%
    16:00 +12°C° 0 mm 8 mps 750 mmHg 48%
    17:00 +11°C° 0 mm 7 mps 751 mmHg 53%
    18:00 +10°C° 0 mm 6 mps 751 mmHg 57%
    19:00 +10°C° 0 mm 6 mps 752 mmHg 59%
    20:00 +9°C° 0 mm 5 mps 752 mmHg 60%
    21:00 +9°C° 0 mm 5 mps 753 mmHg 62%
    22:00 +8°C° 0 mm 5 mps 753 mmHg 63%
    23:00 +8°C° 0 mm 5 mps 753 mmHg 64%

    Tomorrow, 15 December, Saturday

    Time Temperature Precipitation Wind Pressure Humidity
    00:00 +8°C° 0 mm 4 mps 753 mmHg 64%
    01:00 +8°C° 0 mm 4 mps 753 mmHg 64%
    02:00 +8°C° 0 mm 4 mps 753 mmHg 64%
    03:00 +7°C° 0 mm 4 mps 753 mmHg 64%
    04:00 +8°C° 0 mm 4 mps 753 mmHg 62%
    05:00 +8°C° 0 mm 4 mps 753 mmHg 60%
    06:00 +9°C° 0 mm 3 mps 753 mmHg 59%
    07:00 +10°C° 0 mm 3 mps 753 mmHg 56%
    08:00 +11°C° 0 mm 3 mps 754 mmHg 54%
    09:00 +12°C° 0 mm 4 mps 754 mmHg 51%
    10:00 +14°C° 0 mm 4 mps 754 mmHg 49%
    11:00 +17°C° 0 mm 4 mps 754 mmHg 47%
    12:00 +19°C° 0 mm 5 mps 753 mmHg 44%
    13:00 +20°C° 0 mm 5 mps 753 mmHg 45%
    14:00 +20°C° 0 mm 4 mps 753 mmHg 45%
    15:00 +21°C° 0 mm 4 mps 752 mmHg 46%
    16:00 +19°C° 0 mm 4 mps 752 mmHg 53%
    17:00 +17°C° 0 mm 3 mps 752 mmHg 59%
    18:00 +16°C° 0 mm 3 mps 753 mmHg 66%
    19:00 +15°C° 0 mm 2 mps 753 mmHg 68%
    20:00 +15°C° 0 mm 2 mps 753 mmHg 69%
    21:00 +14°C° 0 mm 2 mps 753 mmHg 71%
    22:00 +14°C° 0 mm 2 mps 753 mmHg 73%
    23:00 +14°C° 0 mm 2 mps 752 mmHg 74%

    Day after tomorrow, 16 December, Sunday

    Time Temperature Precipitation Wind Pressure Humidity
    00:00 +13°C° 0 mm 2 mps 752 mmHg 76%
    01:00 +13°C° 0 mm 2 mps 752 mmHg 77%
    02:00 +13°C° 0 mm 2 mps 752 mmHg 78%
    03:00 +13°C° 0 mm 2 mps 751 mmHg 78%
    04:00 +13°C° 0 mm 2 mps 751 mmHg 79%
    05:00 +13°C° 0 mm 2 mps 751 mmHg 79%
    06:00 +12°C° 0 mm 1 mps 750 mmHg 79%
    07:00 +14°C° 0 mm 2 mps 751 mmHg 73%
    08:00 +15°C° 0 mm 2 mps 751 mmHg 68%
    09:00 +17°C° 0 mm 2 mps 751 mmHg 63%
    10:00 +18°C° 0 mm 3 mps 751 mmHg 55%
    11:00 +20°C° 0 mm 4 mps 750 mmHg 48%
    12:00 +22°C° 0 mm 5 mps 750 mmHg 41%
    13:00 +22°C° 0 mm 5 mps 750 mmHg 40%
    14:00 +22°C° 0 mm 6 mps 750 mmHg 39%
    15:00 +22°C° 0 mm 7 mps 749 mmHg 38%
    16:00 +20°C° 0 mm 6 mps 750 mmHg 46%
    17:00 +17°C° 0 mm 5 mps 750 mmHg 54%
    18:00 +16°C° 0 mm 5 mps 751 mmHg 62%
    19:00 +15°C° 0 mm 5 mps 751 mmHg 65%
    20:00 +14°C° 0 mm 4 mps 752 mmHg 68%
    21:00 +13°C° 0 mm 4 mps 752 mmHg 71%
    22:00 +13°C° 0 mm 4 mps 753 mmHg 73%
    23:00 +12°C° 0 mm 4 mps 753 mmHg 75%

    17 December, Monday

    Time Temperature Precipitation Wind Pressure Humidity
    00:00 +12°C° 0 mm 4 mps 753 mmHg 76%
    01:00 +11°C° 0 mm 4 mps 753 mmHg 78%
    02:00 +11°C° 0 mm 4 mps 753 mmHg 79%
    03:00 +10°C° 0 mm 3 mps 754 mmHg 80%
    04:00 +10°C° 0 mm 4 mps 754 mmHg 80%
    05:00 +10°C° 0 mm 4 mps 754 mmHg 80%
    06:00 +8°C° 0 mm 4 mps 754 mmHg 81%
    07:00 +10°C° 0 mm 4 mps 755 mmHg 77%
    08:00 +11°C° 0 mm 4 mps 755 mmHg 73%
    09:00 +11°C° 0 mm 4 mps 756 mmHg 69%
    10:00 +12°C° 0 mm 4 mps 756 mmHg 60%
    11:00 +14°C° 0 mm 4 mps 756 mmHg 52%
    12:00 +15°C° 0 mm 4 mps 756 mmHg 43%
    13:00 +16°C° 0 mm 3 mps 756 mmHg 41%
    14:00 +17°C° 0 mm 3 mps 755 mmHg 38%
    15:00 +17°C° 0 mm 2 mps 755 mmHg 35%
    16:00 +15°C° 0 mm 2 mps 755 mmHg 41%
    17:00 +13°C° 0 mm 1 mps 755 mmHg 47%
    18:00 +11°C° 0 mm 1 mps 755 mmHg 54%
    19:00 +11°C° 0 mm 1 mps 756 mmHg 57%
    20:00 +11°C° 0 mm 1 mps 756 mmHg 60%
    21:00 +11°C° 0 mm 1 mps 756 mmHg 63%
    22:00 +10°C° 0 mm 1 mps 756 mmHg 67%
    23:00 +10°C° 0 mm 1 mps 756 mmHg 71%

    18 December, Tuesday

    Time Temperature Precipitation Wind Pressure Humidity
    00:00 +10°C° 0 mm 1 mps 755 mmHg 76%
    01:00 +10°C° 0 mm 1 mps 755 mmHg 79%
    02:00 +9°C° 0 mm 1 mps 755 mmHg 82%
    03:00 +9°C° 0 mm 1 mps 755 mmHg 86%
    04:00 +9°C° 0 mm 1 mps 754 mmHg 87%
    05:00 +8°C° 0 mm 1 mps 754 mmHg 87%
    06:00 +8°C° 0 mm 1 mps 754 mmHg 88%
    07:00 +9°C° 0 mm 1 mps 754 mmHg 84%
    08:00 +11°C° 0 mm 1 mps 754 mmHg 80%
    09:00 +12°C° 0 mm 1 mps 754 mmHg 76%
    10:00 +13°C° 0 mm 1 mps 754 mmHg 70%
    11:00 +15°C° 0 mm 1 mps 754 mmHg 64%
    12:00 +16°C° 0 mm 1 mps 753 mmHg 57%
    13:00 +18°C° 0 mm 1 mps 753 mmHg 55%
    14:00 +18°C° 0 mm 1 mps 752 mmHg 52%
    15:00 +18°C° 0 mm 2 mps 752 mmHg 49%
    16:00 +16°C° 0 mm 1 mps 752 mmHg 57%
    17:00 +14°C° 0 mm 1 mps 752 mmHg 65%
    18:00 +13°C° 0 mm 1 mps 752 mmHg 72%
    19:00 +12°C° 0 mm 1 mps 753 mmHg 74%
    20:00 +12°C° 0 mm 1 mps 753 mmHg 75%
    21:00 +11°C° 0 mm 1 mps 753 mmHg 77%
    22:00 +11°C° 0 mm 1 mps 753 mmHg 76%
    23:00 +11°C° 0 mm 1 mps 753 mmHg 75%

    19 December, Wednesday

    Time Temperature Precipitation Wind Pressure Humidity
    00:00 +11°C° 0 mm 1 mps 753 mmHg 74%
    01:00 +11°C° 0 mm 1 mps 752 mmHg 72%
    02:00 +11°C° 0 mm 1 mps 752 mmHg 71%
    03:00 +11°C° 0 mm 1 mps 752 mmHg 70%
    04:00 +11°C° 0 mm 1 mps 752 mmHg 68%
    05:00 +11°C° 0 mm 1 mps 752 mmHg 66%
    06:00 +11°C° 0 mm 1 mps 752 mmHg 64%
    07:00 +12°C° 0 mm 1 mps 752 mmHg 61%
    08:00 +13°C° 0 mm 1 mps 752 mmHg 58%
    09:00 +14°C° 0 mm 1 mps 753 mmHg 55%
    10:00 +15°C° 0.2 mm 2 mps 752 mmHg 55%
    11:00 +16°C° 0.2 mm 2 mps 752 mmHg 54%
    12:00 +17°C° 0.2 mm 2 mps 752 mmHg 54%
    13:00 +17°C° 0 mm 2 mps 752 mmHg 54%
    14:00 +18°C° 0 mm 2 mps 751 mmHg 55%
    15:00 +18°C° 0 mm 2 mps 751 mmHg 55%
    16:00 +16°C° 0 mm 2 mps 751 mmHg 62%
    17:00 +15°C° 0 mm 2 mps 752 mmHg 68%
    18:00 +13°C° 0 mm 1 mps 752 mmHg 74%
    19:00 +13°C° 0 mm 1 mps 752 mmHg 75%
    20:00 +13°C° 0 mm 1 mps 752 mmHg 76%
    21:00 +12°C° 0 mm 1 mps 752 mmHg 77%
    22:00 +12°C° 0 mm 1 mps 752 mmHg 79%
    23:00 +12°C° 0 mm 1 mps 752 mmHg 80%
    Show more